This demonstration page uses our WeatherBlox Daily Observations layout. Learn more.

Left ArrowRight Arrow

44.8408, -93.29828

Hourly Observations for March 15, 2017

Temp ( °F °C ) Dew Point ( °F °C ) Humidity (%) Winds ( mph kmh ) Pressure ( in mb ) Visibility ( mi km ) Precip ( " mm )
12:53 am 00:53 Clear 19 -7.2 4 -15.6 51 51 W 6 9 30.50 1033 10 16 0.00 0.00
1:53 am 01:53 Clear 18 -7.8 4 -15.6 54 54 SW 3 6 30.50 1033 10 16 0.00 0.00
2:53 am 02:53 Clear 17 -8.3 4 -15.6 56 56 SW 3 6 30.50 1033 10 16 0.00 0.00
3:53 am 03:53 Clear 15 -9.4 5 -15 64 64 Calm 30.49 1032 10 16 0.00 0.00
4:53 am 04:53 Clear 14 -10 4 -15.6 64 64 SW 5 7 30.49 1033 10 16 0.00 0.00
5:53 am 05:53 Clear 13 -10.6 5 -15 70 70 WSW 5 7 30.49 1033 10 16 0.00 0.00
6:53 am 06:53 Clear 12 -11.1 5 -15 73 73 SW 3 6 30.50 1033 10 16 0.00 0.00
7:53 am 07:53 Sunny 12 -11.1 5 -15 73 73 WSW 3 6 30.50 1033 10 16 0.00 0.00
8:53 am 08:53 Sunny 15 -9.4 7 -13.9 70 70 SW 3 6 30.50 1033 10 16 0.00 0.00
9:53 am 09:53 Mostly Sunny 21 -6.1 7 -13.9 54 54 Calm 30.48 1032 10 16 0.00 0.00
10:53 am 10:53 Mostly Sunny 22 -5.6 9 -12.8 57 57 Calm 30.47 1032 10 16 0.00 0.00
11:53 am 11:53 Mostly Sunny 25 -3.9 7 -13.9 46 46 VRB 5 7 30.46 1031 10 16 0.00 0.00
12:53 pm 12:53 Sunny 28 -2.2 6 -14.4 39 39 SW 7 11 30.44 1031 10 16 0.00 0.00
1:53 pm 13:53 Sunny 30 -1.1 4 -15.6 33 33 S 8 13 30.41 1030 10 16 0.00 0.00
2:53 pm 14:53 Sunny 30 -1.1 3 -16.1 31 31 VRB 7 11 30.40 1029 10 16 0.00 0.00
3:53 pm 15:53 Mostly Sunny 31 -0.6 5 -15 33 33 W 8 13 30.37 1029 10 16 0.00 0.00
4:53 pm 16:53 Mostly Sunny 30 -1.1 6 -14.4 36 36 VRB 6 9 30.36 1028 10 16 0.00 0.00
5:53 pm 17:53 Mostly Sunny 30 -1.1 7 -13.9 38 38 SW 7 11 30.35 1028 10 16 0.00 0.00
6:53 pm 18:53 Mostly Sunny 29 -1.7 7 -13.9 39 39 SSW 7 11 30.33 1027 10 16 0.00 0.00
7:53 pm 19:53 Mostly Clear 28 -2.2 8 -13.3 43 43 S 8 13 30.33 1027 10 16 0.00 0.00
8:53 pm 20:53 Mostly Clear 26 -3.3 9 -12.8 48 48 SSW 7 11 30.34 1028 10 16 0.00 0.00
9:53 pm 21:53 Mostly Cloudy 25 -3.9 9 -12.8 50 50 SSW 6 9 30.34 1027 10 16 0.00 0.00
10:53 pm 22:53 Mostly Cloudy 24 -4.4 9 -12.8 52 52 S 6 9 30.32 1027 10 16 0.00 0.00
11:53 pm 23:53 Cloudy 24 -4.4 11 -11.7 57 57 SE 6 9 30.32 1027 10 16 0.00 0.00

Powered by AerisWeather